SWA3594 PHOG-PHNL

Flight info

Callsign SWA3594
Flight time 0h 25m
Altitude 12000
Route MAUI5 OGG LNY JULLE5
Aircraft B738/M-SADE2E3GIJ4RWZ/LB1D1

Departure

Time 2026-05-08 03:55
Airport Kahului International Airport (PHOG)

Arrival

Time 2026-05-08 04:21
Airport Daniel K. Inouye International Airport (PHNL)
Time Latitude Longitude Altitude Speed Heading
2026-05-08 03:39 20.89532 -156.43497 30 ft 0 kts 304°
2026-05-08 03:47 20.89531 -156.43495 30 ft 1 kts 304°
2026-05-08 03:48 20.89522 -156.43481 30 ft 3 kts 304°
2026-05-08 03:48 20.89511 -156.43464 30 ft 3 kts 304°
2026-05-08 03:48 20.89501 -156.43449 29 ft 3 kts 302°
2026-05-08 03:48 20.89493 -156.43431 27 ft 3 kts 265°
2026-05-08 03:49 20.89499 -156.43415 28 ft 3 kts 220°
2026-05-08 03:49 20.89511 -156.43405 30 ft 1 kts 214°
2026-05-08 03:49 20.89515 -156.43403 30 ft 0 kts 214°
2026-05-08 03:52 20.89478 -156.43429 30 ft 24 kts 213°
2026-05-08 03:52 20.89326 -156.43536 30 ft 26 kts 215°
2026-05-08 03:52 20.89183 -156.43645 31 ft 24 kts 216°
2026-05-08 03:52 20.89063 -156.43715 31 ft 15 kts 189°
2026-05-08 03:53 20.89010 -156.43713 31 ft 0 kts 166°
2026-05-08 03:54 20.89005 -156.43711 31 ft 4 kts 160°
2026-05-08 03:54 20.88960 -156.43659 31 ft 16 kts 116°
2026-05-08 03:55 20.89008 -156.43561 31 ft 30 kts 36°
2026-05-08 03:55 20.89391 -156.43279 32 ft 102 kts 35°
2026-05-08 03:55 20.90135 -156.42726 85 ft 153 kts 36°
2026-05-08 03:55 20.91000 -156.42032 805 ft 153 kts 34°
2026-05-08 03:56 20.91784 -156.41329 1714 ft 144 kts 43°
2026-05-08 03:56 20.92626 -156.40616 2205 ft 168 kts 33°
2026-05-08 03:56 20.93729 -156.39950 2557 ft 195 kts 19°
2026-05-08 03:56 20.95133 -156.40027 2929 ft 222 kts 339°
2026-05-08 03:57 20.96291 -156.41240 3214 ft 253 kts 299°
2026-05-08 03:57 20.96692 -156.43182 3585 ft 276 kts 272°
2026-05-08 03:57 20.96486 -156.45252 4382 ft 281 kts 258°
2026-05-08 03:57 20.96030 -156.47272 5508 ft 277 kts 255°
2026-05-08 03:58 20.95543 -156.49265 6557 ft 276 kts 254°
2026-05-08 03:58 20.95066 -156.51247 7417 ft 279 kts 255°
2026-05-08 03:58 20.94599 -156.53263 8330 ft 279 kts 256°
2026-05-08 03:58 20.94143 -156.55291 9213 ft 283 kts 256°
2026-05-08 03:59 20.93692 -156.57347 10101 ft 284 kts 257°
2026-05-08 03:59 20.93247 -156.59429 10848 ft 288 kts 257°
2026-05-08 03:59 20.92811 -156.61515 11604 ft 290 kts 257°
2026-05-08 03:59 20.92345 -156.63596 11910 ft 285 kts 255°
2026-05-08 04:00 20.91821 -156.65703 11998 ft 306 kts 255°
2026-05-08 04:00 20.91455 -156.68038 11994 ft 332 kts 272°
2026-05-08 04:00 20.91741 -156.70570 12022 ft 354 kts 278°
2026-05-08 04:00 20.92117 -156.73245 12025 ft 373 kts 278°
2026-05-08 04:01 20.92508 -156.76007 12011 ft 377 kts 278°
2026-05-08 04:01 20.92897 -156.78796 11990 ft 379 kts 277°
2026-05-08 04:01 20.93276 -156.81568 11984 ft 374 kts 277°
2026-05-08 04:01 20.93645 -156.84317 11989 ft 375 kts 277°
2026-05-08 04:02 20.94010 -156.87087 11992 ft 377 kts 277°
2026-05-08 04:02 20.94374 -156.89870 11991 ft 376 kts 277°
2026-05-08 04:02 20.94735 -156.92639 11980 ft 377 kts 277°
2026-05-08 04:02 20.95089 -156.95376 11987 ft 377 kts 277°
2026-05-08 04:03 20.95449 -156.98158 11989 ft 378 kts 277°
2026-05-08 04:03 20.96163 -157.03698 11979 ft 376 kts 277°
2026-05-08 04:03 20.96491 -157.06248 11987 ft 375 kts 277°
2026-05-08 04:04 20.96845 -157.09003 11990 ft 373 kts 277°
2026-05-08 04:04 20.97196 -157.11744 11980 ft 373 kts 277°
2026-05-08 04:04 20.97552 -157.14515 11989 ft 376 kts 277°
2026-05-08 04:04 20.97906 -157.17284 11990 ft 376 kts 277°
2026-05-08 04:05 20.98260 -157.20061 11983 ft 378 kts 277°
2026-05-08 04:05 20.98617 -157.22850 11992 ft 378 kts 277°
2026-05-08 04:05 20.98972 -157.25634 11989 ft 377 kts 277°
2026-05-08 04:05 20.99325 -157.28400 11969 ft 375 kts 277°
2026-05-08 04:06 20.99677 -157.31164 11982 ft 374 kts 277°
2026-05-08 04:06 21.00027 -157.33926 11977 ft 376 kts 277°
2026-05-08 04:06 21.00378 -157.36686 11979 ft 371 kts 277°
2026-05-08 04:06 21.00722 -157.39404 11969 ft 363 kts 277°
2026-05-08 04:07 21.01051 -157.41998 11958 ft 341 kts 277°
2026-05-08 04:07 21.01367 -157.44490 11773 ft 337 kts 277°
2026-05-08 04:07 21.01677 -157.46951 11505 ft 329 kts 277°
2026-05-08 04:07 21.01975 -157.49311 11136 ft 320 kts 277°
2026-05-08 04:08 21.02268 -157.51633 10786 ft 309 kts 277°
2026-05-08 04:08 21.02547 -157.53853 10650 ft 293 kts 277°
2026-05-08 04:08 21.02815 -157.55984 10536 ft 285 kts 277°
2026-05-08 04:08 21.03076 -157.58066 10407 ft 280 kts 277°
2026-05-08 04:09 21.03335 -157.60130 10310 ft 278 kts 276°
2026-05-08 04:09 21.03591 -157.62174 10198 ft 275 kts 276°
2026-05-08 04:09 21.03843 -157.64193 10073 ft 272 kts 277°
2026-05-08 04:09 21.04092 -157.66189 9919 ft 271 kts 277°
2026-05-08 04:10 21.04344 -157.68207 9620 ft 275 kts 276°
2026-05-08 04:10 21.04597 -157.70242 9321 ft 277 kts 277°
2026-05-08 04:10 21.04852 -157.72284 9031 ft 276 kts 277°
2026-05-08 04:10 21.05106 -157.74317 8751 ft 275 kts 277°
2026-05-08 04:11 21.05357 -157.76339 8463 ft 274 kts 277°
2026-05-08 04:11 21.05609 -157.78363 8169 ft 273 kts 277°
2026-05-08 04:11 21.05858 -157.80372 7891 ft 272 kts 277°
2026-05-08 04:11 21.06103 -157.82348 7612 ft 271 kts 277°
2026-05-08 04:12 21.06351 -157.84347 7330 ft 271 kts 277°
2026-05-08 04:12 21.06599 -157.86345 7053 ft 270 kts 277°
2026-05-08 04:12 21.06846 -157.88339 6782 ft 270 kts 277°
2026-05-08 04:12 21.07092 -157.90331 6487 ft 270 kts 277°
2026-05-08 04:13 21.07337 -157.92321 6200 ft 269 kts 277°
2026-05-08 04:13 21.07597 -157.94304 5946 ft 267 kts 282°
2026-05-08 04:13 21.08256 -157.96126 5799 ft 263 kts 290°
2026-05-08 04:13 21.08408 -157.98060 5516 ft 265 kts 262°
2026-05-08 04:14 21.08327 -158.00038 5248 ft 269 kts 278°
2026-05-08 04:14 21.08831 -158.01972 4995 ft 271 kts 294°
2026-05-08 04:14 21.09689 -158.03773 4740 ft 273 kts 301°
2026-05-08 04:14 21.10677 -158.05504 4466 ft 272 kts 304°
2026-05-08 04:15 21.11725 -158.07180 4183 ft 270 kts 307°
2026-05-08 04:15 21.12839 -158.08791 3935 ft 269 kts 310°
2026-05-08 04:15 21.14048 -158.10309 3665 ft 267 kts 317°
2026-05-08 04:15 21.15521 -158.11410 3517 ft 253 kts 348°
2026-05-08 04:16 21.17183 -158.11402 3437 ft 234 kts 22°
2026-05-08 04:16 21.18113 -158.10868 3398 ft 225 kts 38°
2026-05-08 04:16 21.19203 -158.09721 3318 ft 216 kts 52°
2026-05-08 04:16 21.20462 -158.08117 3157 ft 207 kts 50°
2026-05-08 04:17 21.21366 -158.06978 3070 ft 194 kts 53°
2026-05-08 04:17 21.21923 -158.06214 2994 ft 193 kts 53°
2026-05-08 04:17 21.22732 -158.05068 2776 ft 197 kts 54°
2026-05-08 04:17 21.23545 -158.03907 2529 ft 191 kts 54°
2026-05-08 04:18 21.24317 -158.02806 2275 ft 180 kts 53°
2026-05-08 04:18 21.25044 -158.01768 2060 ft 167 kts 53°
2026-05-08 04:18 21.25721 -158.00801 1836 ft 157 kts 52°
2026-05-08 04:18 21.26352 -157.99901 1637 ft 146 kts 53°
2026-05-08 04:19 21.26958 -157.99037 1493 ft 149 kts 54°
2026-05-08 04:19 21.27567 -157.98166 1259 ft 143 kts 50°
2026-05-08 04:19 21.28154 -157.97330 1077 ft 135 kts 51°
2026-05-08 04:19 21.28724 -157.96519 922 ft 141 kts 53°
2026-05-08 04:20 21.29325 -157.95656 790 ft 149 kts 48°
2026-05-08 04:20 21.29976 -157.94731 533 ft 152 kts 51°
2026-05-08 04:20 21.30597 -157.93834 330 ft 151 kts 54°
2026-05-08 04:20 21.31221 -157.92957 125 ft 148 kts 52°
2026-05-08 04:21 21.31808 -157.92121 12 ft 130 kts 52°
2026-05-08 04:21 21.32283 -157.91459 5 ft 86 kts 53°
2026-05-08 04:21 21.32556 -157.91071 10 ft 49 kts 52°
2026-05-08 04:21 21.32689 -157.90884 11 ft 29 kts 52°
2026-05-08 04:22 21.32805 -157.90715 12 ft 27 kts 50°
2026-05-08 04:22 21.32932 -157.90680 8 ft 21 kts 325°
2026-05-08 04:22 21.33033 -157.90771 8 ft 18 kts 291°
2026-05-08 04:22 21.33020 -157.90901 14 ft 18 kts 241°
2026-05-08 04:23 21.33004 -157.91024 13 ft 17 kts 271°
2026-05-08 04:23 21.32923 -157.91176 13 ft 33 kts 232°
2026-05-08 04:23 21.32792 -157.91364 13 ft 21 kts 244°
2026-05-08 04:23 21.32786 -157.91515 11 ft 16 kts 287°
2026-05-08 04:24 21.32849 -157.91574 14 ft 12 kts 339°
2026-05-08 04:24 21.32876 -157.91578 14 ft 1 kts 354°
2026-05-08 04:24 21.32882 -157.91579 14 ft 0 kts 356°